Hourly Weather Roundup
Issued by NWS Central Illinois

Home | Current Version | Previous Version | Text Only | Print | Product List | Glossary On
Versions: 1 2 3 4 5 6 7 8 9 10 11 12 13 14 15 16 17 18 19 20 21 22 23 24 25 26 27 28 29 30 31 32 33 34 35 36 37 38 39 40 41 42 43 44 45 46 47 48 49 50
000
NZUS43 KILX 260210
HWRILX

AREA WEATHER ROUNDUP
NATIONAL WEATHER SERVICE, LINCOLN IL
900 PM CDT MON JUL 25 2016


CITY           SKY/WX    TMP DP  RH WIND       PRES   REMARKS
BLOOMINGTON    PTCLDY    76  70  82 N5        30.03R
CHAMPAIGN      PTCLDY    77  71  82 NE3       30.01R
DANVILLE       CLOUDY    75  74  96 CALM      29.98S
DECATUR        PTCLDY    77  73  87 N5        30.01R
EFFINGHAM      CLOUDY    80  77  91 CALM      30.01R HX  85
FLORA          CLOUDY    79  76  90 CALM      29.98S HX  83
GALESBURG      CLOUDY    74  69  85 CALM      30.03R
JACKSONVILLE   CLEAR     74  72  93 CALM      30.01S
LACON          PTCLDY    73  70  89 CALM      30.01R
LAWRENCEVILLE  CLOUDY    78  77  96 S3        29.99R HX  81
LITCHFIELD     NOT AVBL
$$


CITY           SKY/WX    TMP DP  RH WIND       PRES   REMARKS
LINCOLN        PTCLDY    77  74  90 N3        30.01R
MACOMB         CLOUDY    73  70  89 CALM      30.05R
MATTOON        PTCLDY    77  72  84 CALM      29.99S
MT CARMEL AP   CLOUDY    76  74  95 NW3       29.99R FOG
OLNEY-NOBLE AP CLOUDY    77  77 100 CALM      29.99R
PARIS          CLOUDY    77  76  95 CALM      30.00S
PEORIA         PTCLDY    77  71  82 CALM      30.02R
PONTIAC        NOT AVBL
RANTOUL        PTCLDY    81  73  78 N3        30.01  HX  85
ROBINSON       CLOUDY    78  76  95 CALM      30.00R HX  80
SPRINGFIELD    PTCLDY    77  72  84 N5        30.01R
TAYLORVILLE    PTCLDY    76  75  96 MISG      30.00S
$$

...REGIONAL REPORTS...


CITY           SKY/WX    TMP DP  RH WIND       PRES   REMARKS
CHICAGO O`HARE PTCLDY    78  64  61 CALM      29.99R HX  80
KANKAKEE       CLOUDY    78  71  78 CALM      30.01S HX  80
MOLINE         CLEAR     78  64  61 CALM      30.02R HX  80
MOUNT STERLING PTCLDY    73  70  89 N5        30.03R
MOUNT VERNON   CLOUDY    77  72  83 CALM      29.98R
PITTSFIELD     PTCLDY    75  72  91 N3        30.03S
QUINCY         PTCLDY    76  69  79 N5        30.03R
ROCKFORD       CLOUDY    80  63  55 W6        30.02R HX  81
$$


CITY           SKY/WX    TMP DP  RH WIND       PRES   REMARKS
BURLINGTON     CLOUDY    74  68  81 N3        30.03R
CEDAR RAPIDS   CLEAR     76  65  68 N5        30.03R
DES MOINES     PTCLDY    81  62  52 NE5       30.04R HX  82
KIRKSVILLE     PTCLDY    75  68  78 N3        30.06R
OTTUMWA        CLOUDY    73  66  78 CALM      30.04R
ST LOUIS       MOCLDY    82  73  74 NE5       30.00R HX  87
$$


CITY           SKY/WX    TMP DP  RH WIND       PRES   REMARKS
TERRE HAUTE    CLOUDY    78  74  87 N3        29.99R HX  81
EVANSVILLE     CLOUDY    78  75  90 CALM      29.99R HX  81
INDIANAPOLIS   MOCLDY    81  73  76 N7        30.00R HX  86
LAFAYETTE      PTCLDY    76  70  82 NE5       30.00R
MADISON        PTCLDY    73  66  78 CALM      30.01S
MILWAUKEE      PTCLDY    79  63  57 S5        30.00R HX  80
$$





USA.gov is the U.S. government's official web portal to all federal, state and local government web resources and services.